Homer, AK

3:32 PM AKDT on July 25, 2017 (GMT -0800)
Homer

Weather History for PAHO - April, 2012

Change the Weather History Date:

Saturday, April 7, 2012

  Actual Average Record
Temperature  
Mean Temperature 31 °F -  
Max Temperature 34 °F 40 °F 52 °F (2016)
Min Temperature 27 °F 27 °F 5 °F (1986)
Degree Days  
Heating Degree Days 34    
Moisture  
Dew Point 29 °F    
Average Humidity 90    
Maximum Humidity 100    
Minimum Humidity 78    
Precipitation  
Precipitation 0.00 in - - ()
Sea Level Pressure  
Sea Level Pressure 30.33 in    
Wind  
Wind Speed 3 mph (West)    
Max Wind Speed 13 mph    
Max Gust Speed -    
Visibility 10 miles    
Events      
Averages and records for this station are not official NWS values.
T = Trace of Precipitation, MM = Missing Value Source: NWS Daily Summary

Daily Weather History Graph

Daily Weather History Graph

Search for Another Location

Airport or City:

Trip Planner

Search our weather history database for the weather conditions in past years. The results will help you decide how hot, cold, wet, or windy it might be!

Date:

Astronomy

Apr. 07, 2012 Rise Set
Actual Time 7:11 AM AKDT 9:05 PM AKDT
Civil Twilight 6:28 AM AKDT 9:49 PM AKDT
Nautical Twilight 5:32 AM AKDT 10:45 PM AKDT
Astronomical Twilight 4:23 AM AKDT 11:55 PM AKDT
Moon 11:34 PM AKDT (4/7) 7:02 AM AKDT (4/7)
Length of Visible Light 15h 21m
Length of Day
13h 53m
Full, 98% of the Moon is Illuminated
Apr 7
Full
Apr 13
Last Quarter
Apr 20
New
Apr 29
First Quarter
May 5
Full

Hourly Weather History & Observations

Time (AKDT) Temp. Windchill Dew Point Humidity Pressure Visibility Wind Dir Wind Speed Gust Speed Precip Events Conditions
12:53 AM 28.0 °F - 28.0 °F 100% 30.27 in 10.0 mi Calm Calm - N/A   Overcast
1:07 AM 28.4 °F - 28.4 °F 100% 30.27 in 10.0 mi Calm Calm - N/A   Overcast
1:53 AM 30.0 °F - 30.0 °F 100% 30.27 in 10.0 mi Calm Calm - N/A   Overcast
2:26 AM 30.2 °F - 30.2 °F 100% 30.27 in 10.0 mi Calm Calm - N/A   Overcast
2:53 AM 32.0 °F 28.7 °F 30.9 °F 96% 30.28 in 10.0 mi NNE 3.5 mph - N/A   Overcast
3:04 AM 30.2 °F - 30.2 °F 100% 30.27 in 9.0 mi Calm Calm - N/A   Overcast
3:23 AM 32.0 °F 28.7 °F 30.2 °F 93% 30.27 in 9.0 mi NE 3.5 mph - N/A   Overcast
3:53 AM 30.9 °F 27.5 °F 30.9 °F 100% 30.27 in 10.0 mi ENE 3.5 mph - N/A   Overcast
4:53 AM 30.9 °F - 30.9 °F 100% 30.27 in 10.0 mi Calm Calm - N/A   Overcast
5:31 AM 30.2 °F - 30.2 °F 100% 30.27 in 10.0 mi Calm Calm - N/A   Overcast
5:46 AM 30.2 °F 26.7 °F 30.2 °F 100% 30.27 in 10.0 mi North 3.5 mph - N/A   Overcast
5:53 AM 30.9 °F - 30.9 °F 100% 30.28 in 10.0 mi Calm Calm - N/A   Overcast
6:53 AM 30.9 °F - 30.0 °F 96% 30.29 in 10.0 mi Calm Calm - N/A   Overcast
7:53 AM 30.9 °F - 30.0 °F 96% 30.29 in 10.0 mi Calm Calm - N/A   Overcast
8:53 AM 30.9 °F - 30.0 °F 96% 30.31 in 10.0 mi Calm Calm - N/A   Overcast
9:53 AM 33.1 °F 26.9 °F 27.0 °F 78% 30.32 in 10.0 mi West 6.9 mph - N/A   Mostly Cloudy
10:53 AM 33.1 °F 24.9 °F 28.0 °F 82% 30.33 in 10.0 mi West 10.4 mph - N/A   Mostly Cloudy
11:53 AM 33.1 °F 24.4 °F 27.0 °F 78% 30.34 in 10.0 mi West 11.5 mph - N/A   Scattered Clouds
12:53 PM 32.0 °F 22.5 °F 27.0 °F 82% 30.35 in 10.0 mi West 12.7 mph - N/A   Mostly Cloudy
1:53 PM 33.1 °F 23.9 °F 28.0 °F 82% 30.36 in 10.0 mi West 12.7 mph - N/A   Mostly Cloudy
2:53 PM 33.1 °F 24.9 °F 27.0 °F 78% 30.37 in 10.0 mi West 10.4 mph - N/A   Overcast
3:53 PM 33.1 °F 25.5 °F 28.0 °F 82% 30.38 in 10.0 mi West 9.2 mph - N/A   Overcast
4:53 PM 33.1 °F 24.9 °F 28.0 °F 82% 30.38 in 10.0 mi West 10.4 mph - N/A   Scattered Clouds
5:53 PM 34.0 °F 26.6 °F 28.0 °F 79% 30.39 in 10.0 mi West 9.2 mph - N/A   Scattered Clouds
6:53 PM 34.0 °F 26.6 °F 28.0 °F 79% 30.40 in 10.0 mi West 9.2 mph - N/A   Scattered Clouds
7:53 PM 34.0 °F 28.0 °F 28.0 °F 79% 30.40 in 10.0 mi West 6.9 mph - N/A   Partly Cloudy
8:53 PM 33.1 °F 30.0 °F 28.0 °F 82% 30.41 in 10.0 mi West 3.5 mph - N/A   Clear
9:53 PM 30.9 °F - 27.0 °F 85% 30.42 in 10.0 mi Calm Calm - N/A   Mostly Cloudy
10:53 PM 28.9 °F - 26.1 °F 89% 30.43 in 10.0 mi Calm Calm - N/A   Clear
11:53 PM 27.0 °F - 26.1 °F 96% 30.43 in 10.0 mi Calm Calm - N/A   Clear